Weather History for Punta Gorda, FL

Change the Weather History Date:

Thursday, August 22, 2013

  Actual Average Record
Temperature  
Mean Temperature 84 °F -  
Max Temperature 93 °F 88 °F 97 °F (2007)
Min Temperature 75 °F 72 °F 72 °F (2001)
Cooling Degree Days 19    
Growing Degree Days 34 (Base 50)    
Moisture  
Dew Point 75 °F    
Average Humidity 88    
Maximum Humidity 100    
Minimum Humidity 52    
Precipitation  
Precipitation 0.10 in - - ()
Sea Level Pressure  
Sea Level Pressure 30.04 in    
Wind  
Wind Speed 5 mph (ENE)    
Max Wind Speed 13 mph    
Max Gust Speed 33 mph    
Visibility 9 miles    
Events Rain    
Averages and records for this station are not official NWS values.
T = Trace of Precipitation, MM = Missing Value Source: NWS Daily Summary

Daily Weather History Graph

Daily Weather History Graph

Search for Another Location

Airport:

Trip Planner

Search our weather history database for the weather conditions in past years. The results will help you decide how hot, cold, wet, or windy it might be!

Date:

Astronomy

Aug. 22, 2013 Rise Set
Actual Time 7:02 AM EDT 7:58 PM EDT
Civil Twilight 6:38 AM EDT 8:22 PM EDT
Nautical Twilight 6:10 AM EDT 8:50 PM EDT
Astronomical Twilight 5:41 AM EDT 9:19 PM EDT
Moon 8:59 PM EDT (8/22) 8:34 AM EDT (8/22)
Length of Visible Light 13h 43m
Length of Day
12h 55m
Waning Gibbous, 97% of the Moon is Illuminated
Aug 22
Waning Gibbous
Aug 28
Last Quarter
Sep 5
New
Sep 12
First Quarter
Sep 19
Full

Hourly Weather History & Observations

Time (EDT) Temp. Heat Index Dew Point Humidity Pressure Visibility Wind Dir Wind Speed Gust Speed Precip Events Conditions
12:53 AM 79.0 °F - 77.0 °F 94% 30.08 in 10.0 mi East 6.9 mph 33.4 mph N/A   Clear
1:53 AM 78.1 °F - 75.9 °F 93% 30.07 in 10.0 mi Calm Calm - N/A   Clear
2:53 AM 77.0 °F - 75.9 °F 96% 30.06 in 10.0 mi NE 5.8 mph - N/A   Clear
3:50 AM 77.0 °F - 75.2 °F 94% 30.04 in 9.0 mi ENE 3.5 mph - N/A   Scattered Clouds
3:53 AM 77.0 °F - 75.9 °F 96% 30.04 in 9.0 mi ENE 3.5 mph - N/A   Scattered Clouds
4:00 AM 77.0 °F - 75.2 °F 94% 30.03 in 9.0 mi ENE 3.5 mph - N/A   Mostly Cloudy
4:20 AM 75.2 °F - 75.2 °F 100% 30.04 in 10.0 mi Calm Calm - N/A   Scattered Clouds
4:40 AM 77.0 °F - 75.2 °F 94% 30.03 in 9.0 mi ENE 3.5 mph - N/A   Mostly Cloudy
4:50 AM 77.0 °F - 75.2 °F 94% 30.04 in 9.0 mi NE 3.5 mph - N/A   Scattered Clouds
4:53 AM 75.9 °F - 75.9 °F 100% 30.04 in 9.0 mi NE 3.5 mph - N/A   Mostly Cloudy
5:05 AM 75.2 °F - 75.2 °F 100% 30.04 in 9.0 mi Calm Calm - N/A   Partly Cloudy
5:53 AM 75.9 °F - 75.0 °F 97% 30.06 in 7.0 mi NNE 4.6 mph - N/A   Clear
6:16 AM 75.2 °F - 75.2 °F 100% 30.05 in 7.0 mi NNE 4.6 mph - N/A   Scattered Clouds
6:24 AM 75.2 °F - 75.2 °F 100% 30.05 in 7.0 mi NNE 4.6 mph - N/A   Mostly Cloudy
6:33 AM 75.2 °F - 75.2 °F 100% 30.05 in 7.0 mi NE 3.5 mph - N/A   Scattered Clouds
6:53 AM 75.9 °F - 75.0 °F 97% 30.04 in 7.0 mi ENE 5.8 mph - N/A   Clear
7:51 AM 77.0 °F - 75.2 °F 94% 30.06 in 9.0 mi ENE 4.6 mph - N/A   Scattered Clouds
7:53 AM 77.0 °F - 75.9 °F 96% 30.06 in 9.0 mi ENE 4.6 mph - N/A   Scattered Clouds
8:53 AM 80.1 °F 85.4 °F 75.9 °F 87% 30.08 in 10.0 mi East 8.1 mph - N/A   Clear
9:53 AM 84.9 °F 95.3 °F 77.0 °F 77% 30.08 in 10.0 mi East 11.5 mph - N/A   Scattered Clouds
10:24 AM 84.2 °F 94.1 °F 77.0 °F 79% 30.08 in 10.0 mi East 10.4 mph - N/A   Mostly Cloudy
10:53 AM 87.1 °F 98.8 °F 77.0 °F 72% 30.08 in 10.0 mi East 11.5 mph - N/A   Scattered Clouds
11:53 AM 89.1 °F 99.1 °F 75.0 °F 63% 30.07 in 10.0 mi ESE 11.5 mph - N/A   Scattered Clouds
12:53 PM 90.0 °F 99.0 °F 73.9 °F 59% 30.05 in 10.0 mi SE 6.9 mph - N/A   Partly Cloudy
1:53 PM 91.0 °F 100.4 °F 73.9 °F 57% 30.04 in 10.0 mi ESE 4.6 mph - N/A   Partly Cloudy
2:53 PM 93.0 °F 101.9 °F 73.0 °F 52% 30.01 in 10.0 mi SE 5.8 mph - N/A   Clear
3:53 PM 88.0 °F 95.6 °F 73.0 °F 61% 29.99 in 10.0 mi East 12.7 mph 24.2 mph N/A   Scattered Clouds
4:53 PM 81.0 °F 87.3 °F 75.9 °F 85% 30.00 in 10.0 mi ESE 8.1 mph - 0.01 in   Scattered Clouds
5:53 PM 75.9 °F - 72.0 °F 87% 30.00 in 10.0 mi SSW 4.6 mph - 0.01 in   Scattered Clouds
6:53 PM 77.0 °F - 73.9 °F 90% 30.02 in 10.0 mi NNE 5.8 mph - 0.04 in Rain Light Rain
7:38 PM 77.0 °F - 75.2 °F 94% 30.03 in 10.0 mi NNE 3.5 mph - 0.03 in Rain Light Rain
7:53 PM 77.0 °F - 75.0 °F 94% 30.03 in 10.0 mi NE 6.9 mph - 0.03 in Rain Light Rain
8:53 PM 77.0 °F - 75.0 °F 94% 30.02 in 10.0 mi Calm Calm - 0.00 in Rain Light Rain
9:53 PM 77.0 °F - 75.0 °F 94% 30.03 in 10.0 mi ENE 4.6 mph - 0.01 in   Partly Cloudy
10:53 PM 77.0 °F - 75.0 °F 94% 30.05 in 10.0 mi SE 3.5 mph - N/A   Partly Cloudy
11:53 PM 77.0 °F - 75.0 °F 94% 30.05 in 10.0 mi Calm Calm - N/A   Clear